sat.trackr.live / text

‹ back to catalog

STARLINK-31407

NORAD 59250 · 2024-049V

PAYLOAD ACTIVE UNKNOWN

§ Identity

Operator
Country
US
Launch date
2024-03-16
Launch site
AFETR
Launch vehicle
Mass (kg)
RCS (m²)

Purposes: comms

External: N2YO · Heavens-Above · Gunter

§ Orbital elements

Epoch: 2026-05-25T01:06:53.246304Z

Period
94.27 min
Inclination
43.0015°
Eccentricity
0.0001192
Mean motion
15.27575774 rev/d
Perigee alt
482.2 km
Apogee alt
483.9 km
Semi-major
6,861.2 km
B*
1.9453e-5
RAAN
61.0815°
Arg perigee
267.5824°
Mean anomaly
92.4892°
Rev number
12,420

§ Raw data

STARLINK-314071 59250U 24049V   26145.04644961  .00000273  00000+0  19453-4 0  99992 59250  43.0015  61.0815 0001192 267.5824  92.4892 15.27575774124207

JSON: /api/v1/satellites/59250 · /tle

For live sub-satellite position, see the globe view (requires WebGL).

§ Visibility from observer

Set your observer location to see the next 7 days of passes ≥ 10°. The values pass through the URL so the page stays shareable.

No JS? Fill the form by hand. The geolocation button needs JavaScript.